sat.trackr.live / text

‹ back to catalog

STARLINK-4525

NORAD 53401 · 2022-097P

PAYLOAD ACTIVE UNKNOWN

§ Identity

Operator
Country
US
Launch date
2022-08-10
Launch site
AFETR
Launch vehicle
Mass (kg)
RCS (m²)

Purposes: comms

External: N2YO · Heavens-Above · Gunter

§ Orbital elements

Epoch: 2026-05-25T02:58:30.614016Z

Period
95.44 min
Inclination
53.2155°
Eccentricity
0.0000968
Mean motion
15.08862990 rev/d
Perigee alt
539.0 km
Apogee alt
540.3 km
Semi-major
6,917.8 km
B*
2.1898e-4
RAAN
140.9952°
Arg perigee
63.1729°
Mean anomaly
296.9362°
Rev number
21,005

§ Raw data

STARLINK-45251 53401U 22097P   26145.12396544  .00003201  00000+0  21898-3 0  99912 53401  53.2155 140.9952 0000968  63.1729 296.9362 15.08862990210050

JSON: /api/v1/satellites/53401 · /tle

For live sub-satellite position, see the globe view (requires WebGL).

§ Visibility from observer

Set your observer location to see the next 7 days of passes ≥ 10°. The values pass through the URL so the page stays shareable.

No JS? Fill the form by hand. The geolocation button needs JavaScript.